Weather History for KDSM - March, 2014

Change the Weather History Date:

Sunday, March 2, 2014

  Actual Average Record
Temperature  
Mean Temperature -2 °F 33 °F  
Max Temperature 2 °F 42 °F 75 °F (1983)
Min Temperature -6 °F 24 °F -10 °F (1913)
Degree Days  
Heating Degree Days 67 32  
Month to date heating degree days 121 64  
Since 1 July heating degree days 5428 4895  
Cooling Degree Days 0 0  
Month to date cooling degree days 0 0  
Year to date cooling degree days 0 0  
Moisture  
Dew Point -15 °F    
Average Humidity 51    
Maximum Humidity 61    
Minimum Humidity 41    
Precipitation  
Precipitation T in 0.06 in 1.87 in (1970)
Month to date precipitation 0.14 0.12  
Year to date precipitation 2.48 2.40  
Snow  
Snow T in 0.20 in 7.50 in (1965)
Month to date snowfall 3.5 0.4  
Since 1 July snowfall 45.4 28.7  
Snow Depth 4.00 in    
Sea Level Pressure  
Sea Level Pressure 30.61 in    
Wind  
Wind Speed 12 mph (North)    
Max Wind Speed 24 mph    
Max Gust Speed 31 mph    
Visibility 10 miles    
Events Snow    
T = Trace of Precipitation, MM = Missing Value Source: NWS Daily Summary

Daily Weather History Graph

Daily Weather History Graph

Search for Another Location

Airport or City:

Trip Planner

Search our weather history database for the weather conditions in past years. The results will help you decide how hot, cold, wet, or windy it might be!

Date:

Astronomy

Mar. 02, 2014 Rise Set
Actual Time 6:47 AM CST 6:06 PM CST
Civil Twilight 6:19 AM CST 6:34 PM CST
Nautical Twilight 5:47 AM CST 7:06 PM CST
Astronomical Twilight 5:15 AM CST 7:38 PM CST
Moon 7:17 AM CST (3/2) 8:05 PM CST (3/2)
Length of Visible Light 12h 14m
Length of Day
11h 18m
Waxing Crescent, 3% of the Moon is Illuminated
Mar 2
Waxing Crescent
Mar 8
First Quarter
Mar 16
Full
Mar 23
Last Quarter
Mar 30
New

Hourly Weather History & Observations

Time (CST) Temp. Windchill Dew Point Humidity Pressure Visibility Wind Dir Wind Speed Gust Speed Precip Events Conditions
12:54 AM -0.0 °F -20.7 °F -9.0 °F 66% 30.55 in 9.0 mi North 17.3 mph 24.2 mph 0.00 in Snow Light Snow
1:54 AM -0.9 °F -23.5 °F -13.0 °F 57% 30.57 in 8.0 mi North 20.7 mph 28.8 mph 0.00 in Snow Light Snow
2:54 AM -2.0 °F -22.6 °F -15.0 °F 54% 30.57 in 9.0 mi North 16.1 mph - 0.00 in   Overcast
3:54 AM -2.9 °F -20.8 °F -14.1 °F 59% 30.57 in 10.0 mi North 11.5 mph - N/A   Overcast
4:54 AM -2.9 °F -21.6 °F -15.0 °F 56% 30.58 in 10.0 mi North 12.7 mph 20.7 mph N/A   Overcast
5:54 AM -4.0 °F -24.5 °F -16.1 °F 56% 30.60 in 10.0 mi North 15.0 mph 21.9 mph N/A   Mostly Cloudy
6:54 AM -5.1 °F -25.9 °F -16.1 °F 59% 30.62 in 10.0 mi North 15.0 mph - N/A   Mostly Cloudy
7:54 AM -6.0 °F -23.6 °F -18.0 °F 56% 30.64 in 10.0 mi North 10.4 mph - N/A   Mostly Cloudy
8:54 AM -5.1 °F -26.6 °F -18.0 °F 54% 30.65 in 10.0 mi North 16.1 mph - N/A   Mostly Cloudy
9:54 AM -4.0 °F -24.5 °F -18.0 °F 51% 30.66 in 10.0 mi North 15.0 mph - N/A   Mostly Cloudy
10:54 AM -2.9 °F -22.4 °F -18.0 °F 49% 30.65 in 10.0 mi North 13.8 mph - N/A   Mostly Cloudy
11:54 AM -0.9 °F -19.1 °F -17.0 °F 47% 30.64 in 10.0 mi NNE 12.7 mph - N/A   Mostly Cloudy
12:54 PM -0.9 °F -21.2 °F -18.0 °F 44% 30.63 in 9.0 mi North 16.1 mph 19.6 mph N/A   Overcast
1:54 PM -0.0 °F -17.1 °F -18.0 °F 43% 30.61 in 10.0 mi NNE 11.5 mph - N/A   Mostly Cloudy
2:54 PM -0.0 °F -18.0 °F -18.0 °F 43% 30.63 in 10.0 mi North 12.7 mph 21.9 mph N/A   Mostly Cloudy
3:54 PM 1.9 °F -14.7 °F -15.0 °F 45% 30.62 in 10.0 mi North 11.5 mph - N/A   Mostly Cloudy
4:54 PM 1.0 °F -14.9 °F -15.0 °F 47% 30.59 in 10.0 mi North 10.4 mph - N/A   Mostly Cloudy
5:54 PM -0.0 °F -16.3 °F -14.1 °F 52% 30.58 in 10.0 mi North 10.4 mph - N/A   Mostly Cloudy
6:54 PM -0.9 °F -17.4 °F -14.1 °F 54% 30.61 in 10.0 mi NNW 10.4 mph - N/A   Mostly Cloudy
7:54 PM -2.0 °F -15.4 °F -14.1 °F 57% 30.62 in 10.0 mi NNW 6.9 mph - N/A   Partly Cloudy
8:54 PM -2.0 °F -13.9 °F -13.0 °F 60% 30.62 in 10.0 mi NW 5.8 mph - N/A   Clear
9:54 PM -4.0 °F -16.3 °F -14.1 °F 62% 30.64 in 10.0 mi WNW 5.8 mph - N/A   Clear
10:54 PM -2.9 °F -16.5 °F -13.0 °F 62% 30.64 in 10.0 mi NW 6.9 mph - N/A   Clear
11:54 PM -2.9 °F -17.7 °F -13.0 °F 62% 30.63 in 10.0 mi NNW 8.1 mph - N/A   Clear